WB9TLH-12 Weather Reports


time (UTC)temp
C
wind
direction
speed
KPH
gust
KPH
rain 1hr
cm
rain 24hr
cm
rain mn
cm
humidity
%
barometer
mb
20260906101836 22 335 0.0 0.0 0.00 0.00 0.00 89 1011.3
20260906101335 21 327 0.0 0.0 0.00 0.00 0.00 89 1011.2
20260906100835 22 338 0.0 0.0 0.00 0.00 0.00 89 1011.2
20260906100335 22 355 0.0 0.0 0.00 0.00 0.00 89 1011.2
20260906095834 22 67 0.0 0.0 0.00 0.00 0.00 89 1011.2
20260906095334 22 32 0.0 0.0 0.00 0.00 0.00 89 1011.3
20260906094834 22 22 0.0 0.0 0.00 0.00 0.00 89 1011.2
20260906094334 22 13 0.0 0.0 0.00 0.00 0.00 90 1011.2
20260906093833 22 32 0.0 0.0 0.00 0.00 0.00 89 1011.2
20260906093333 22 18 0.0 0.0 0.00 0.00 0.00 90 1011.1
20260906092833 22 17 0.0 0.0 0.00 0.00 0.00 90 1011.0
20260906092332 22 30 0.0 0.0 0.00 0.00 0.00 90 1011.0
20260906091832 22 329 0.0 0.0 0.00 0.00 0.00 90 1010.9
20260906091332 22 15 0.0 0.0 0.00 0.00 0.00 90 1010.9
20260906090832 22 350 0.0 0.0 0.00 0.00 0.00 90 1010.9
20260906090331 22 9 0.0 0.0 0.00 0.00 0.00 90 1010.8
20260906085831 22 355 0.0 0.0 0.00 0.00 0.00 91 1010.7
20260906085331 22 13 0.0 0.0 0.00 0.00 0.00 91 1010.6
20260906084830 22 324 0.0 0.0 0.00 0.00 0.00 91 1010.6
20260906084330 22 12 0.0 0.0 0.00 0.00 0.00 91 1010.6
20260906083830 22 343 0.0 0.0 0.00 0.00 0.00 91 1010.6
20260906083329 22 33 0.0 0.0 0.00 0.00 0.00 91 1010.6
20260906082829 22 0 0.0 0.0 0.00 0.00 0.00 91 1010.5
20260906082329 22 355 0.0 0.0 0.00 0.00 0.00 92 1010.5
20260906081829 22 13 0.0 0.0 0.00 0.00 0.00 92 1010.4
20260906081328 22 45 0.0 0.0 0.00 0.00 0.00 92 1010.4
20260906080828 22 295 0.0 0.0 0.00 0.00 0.00 92 1010.5
20260906080328 22 36 0.0 0.0 0.00 0.00 0.00 92 1010.5
20260906075827 22 15 0.0 0.0 0.00 0.00 0.00 92 1010.5
20260906075327 22 0 0.0 0.0 0.00 0.00 0.00 92 1010.5
20260906074827 22 68 0.0 0.0 0.00 0.00 0.00 92 1010.5
20260906074327 22 5 0.0 0.0 0.00 0.00 0.00 92 1010.5
20260906073826 22 87 0.0 0.0 0.00 0.00 0.00 92 1010.5
20260906073326 22 22 0.0 0.0 0.00 0.00 0.00 92 1010.5
20260906072826 22 10 0.0 0.0 0.00 0.00 0.00 92 1010.5
20260906072325 22 19 0.0 0.0 0.00 0.00 0.00 92 1010.5
20260906071825 22 5 0.0 0.0 0.00 0.00 0.00 92 1010.7
20260906071325 22 20 0.0 0.0 0.00 0.00 0.00 92 1010.7
20260906070825 22 24 0.0 0.0 0.00 0.00 0.00 92 1010.7
20260906070324 22 355 0.0 0.0 0.00 0.00 0.00 92 1010.6
20260906065824 22 80 0.0 0.0 0.00 0.00 0.00 92 1010.6
20260906065324 22 346 0.0 0.0 0.00 0.00 0.00 91 1010.6
20260906064823 22 23 0.0 0.0 0.00 0.00 0.00 91 1010.6
20260906064323 22 22 0.0 0.0 0.00 0.00 0.00 91 1010.6
20260906063823 22 58 0.0 0.0 0.00 0.00 0.00 91 1010.6
20260906063322 23 355 0.0 0.0 0.00 0.00 0.00 91 1010.7
20260906062823 23 355 0.0 0.0 0.00 0.00 0.00 90 1010.7
20260906062322 23 13 0.0 0.0 0.00 0.00 0.00 90 1010.7
20260906061822 23 21 0.0 0.0 0.00 0.00 0.00 90 1010.8
20260906061321 23 329 0.0 0.0 0.00 0.00 0.00 90 1010.8
20260906060821 23 19 0.0 0.0 0.00 0.00 0.00 89 1010.8
20260906060321 23 15 0.0 0.0 0.00 0.00 0.00 89 1010.7
20260906055820 23 21 0.0 0.0 0.00 0.00 0.00 89 1010.7
20260906055320 23 38 0.0 0.0 0.00 0.00 0.00 88 1010.6
20260906054820 23 48 0.0 0.0 0.00 0.00 0.00 88 1010.5
20260906054320 23 13 0.0 0.0 0.00 0.00 0.00 88 1010.5
20260906053819 23 22 0.0 0.0 0.00 0.00 0.00 87 1010.6
20260906053319 23 40 0.0 0.0 0.00 0.00 0.00 88 1010.6
20260906052819 23 26 0.0 0.0 0.00 0.00 0.00 87 1010.8
20260906052318 24 29 0.0 0.0 0.00 0.00 0.00 87 1010.6
20260906051818 24 29 0.0 0.0 0.00 0.00 0.00 87 1010.6
20260906051318 24 24 0.0 0.0 0.00 0.00 0.00 86 1010.6
20260906050817 24 21 0.0 0.0 0.00 0.00 0.00 86 1010.5
20260906050317 24 21 0.0 0.0 0.00 0.00 0.00 86 1010.4
20260906045817 24 38 0.0 0.0 0.00 0.00 0.00 86 1010.4
20260906045317 24 22 0.0 0.0 0.00 0.00 0.00 85 1010.4
20260906044816 24 22 0.0 0.0 0.00 0.00 0.00 85 1010.3
20260906044316 25 32 0.0 0.0 0.00 0.00 0.00 85 1010.3
20260906043816 25 23 0.0 0.0 0.00 0.00 0.00 84 1010.2
20260906043315 25 9 0.0 0.0 0.00 0.00 0.00 84 1010.2
20260906042815 25 36 0.0 0.0 0.00 0.00 0.00 83 1010.0
20260906042315 25 15 0.0 0.0 0.00 0.00 0.00 82 1010.0
20260906041815 25 25 0.0 0.0 0.00 0.00 0.00 82 1010.0
20260906041314 25 36 0.0 0.0 0.00 0.00 0.00 82 1009.9
20260906040814 25 34 0.0 0.0 0.00 0.00 0.00 81 1009.8
20260906040314 25 21 0.0 0.0 0.00 0.00 0.00 81 1009.9
20260906035813 25 16 0.0 0.0 0.00 0.00 0.00 81 1009.9
20260906035313 25 24 0.0 0.0 0.00 0.00 0.00 81 1009.8
20260906034813 26 12 0.0 0.0 0.00 0.00 0.00 80 1009.9
20260906034313 26 0 0.0 0.0 0.00 0.00 0.00 80 1009.9
20260906033812 26 38 0.0 0.0 0.00 0.00 0.00 80 1010.0
20260906033312 26 59 0.0 0.0 0.00 0.00 0.00 80 1010.0
20260906032812 26 355 0.0 0.0 0.00 0.00 0.00 80 1009.9
20260906032311 26 28 0.0 0.0 0.00 0.00 0.00 80 1009.9
20260906031811 26 24 0.0 0.0 0.00 0.00 0.00 80 1010.0
20260906031311 26 325 0.0 0.0 0.00 0.00 0.00 80 1009.9
20260906030810 26 22 0.0 0.0 0.00 0.00 0.00 80 1009.8
20260906030310 26 344 0.0 0.0 0.00 0.00 0.00 79 1009.8
20260906025810 27 5 0.0 0.0 0.00 0.00 0.00 79 1009.7
20260906025310 27 9 0.0 0.0 0.00 0.00 0.00 79 1009.7
20260906024809 27 20 0.0 0.0 0.00 0.00 0.00 78 1009.6
20260906024309 27 19 0.0 0.0 0.00 0.00 0.00 78 1009.6
20260906023809 27 29 0.0 0.0 0.00 0.00 0.00 78 1009.5
20260906023308 27 26 0.0 0.0 0.00 0.00 0.00 77 1009.5
20260906022808 27 24 0.0 0.0 0.00 0.00 0.00 77 1009.5
20260906022308 27 30 0.0 0.0 0.00 0.00 0.00 77 1009.4
20260906021808 27 25 0.0 0.0 0.00 0.00 0.00 76 1009.3
20260906021307 27 26 0.0 0.0 0.00 0.00 0.00 76 1009.2
20260906020807 27 20 0.0 0.0 0.00 0.00 0.00 76 1009.2
20260906020307 28 27 0.0 0.0 0.00 0.00 0.00 75 1009.3
20260906015806 28 14 0.0 0.0 0.00 0.00 0.00 75 1009.3
20260906015306 28 21 0.0 0.0 0.00 0.00 0.00 75 1009.3
20260906014806 28 24 0.0 0.0 0.00 0.00 0.00 75 1009.2
20260906014306 28 40 0.0 0.0 0.00 0.00 0.00 76 1009.1
20260906013805 28 10 0.0 0.0 0.00 0.00 0.00 76 1008.9
20260906013305 28 12 0.0 0.0 0.00 0.00 0.00 77 1008.8
20260906012805 29 329 0.0 0.0 0.00 0.00 0.00 76 1008.7
20260906012306 29 22 0.0 0.0 0.00 0.00 0.00 75 1008.6
20260906011804 29 25 0.0 0.0 0.00 0.00 0.00 74 1008.4
20260906011304 30 24 0.0 0.0 0.00 0.00 0.00 74 1008.4
20260906010803 30 19 0.0 0.0 0.00 0.00 0.00 74 1008.4
20260906010303 30 24 0.0 0.0 0.00 0.00 0.00 73 1008.3
20260906005803 30 34 0.0 0.0 0.00 0.00 0.00 72 1008.3
20260906005306 30 31 0.0 0.0 0.00 0.00 0.00 72 1008.2
20260906004802 30 27 0.0 0.0 0.00 0.00 0.00 71 1008.2
20260906004302 30 0 0.0 0.0 0.00 0.00 0.00 70 1008.2
20260906003802 31 306 0.0 0.0 0.00 0.00 0.00 69 1008.2
20260906003301 31 32 0.0 0.0 0.00 0.00 0.00 68 1008.2
20260906002801 31 5 0.0 0.0 0.00 0.00 0.00 67 1008.2
20260906002301 31 313 0.0 0.0 0.00 0.00 0.00 66 1008.2
20260906001801 31 310 0.0 0.0 0.00 0.00 0.00 66 1008.2
20260906001300 31 319 0.0 0.0 0.00 0.00 0.00 65 1008.3
20260906000800 31 316 0.0 0.0 0.00 0.00 0.00 65 1008.3
20260906000300 32 327 0.0 0.0 0.00 0.00 0.00 64 1008.4
20260905235759 32 325 0.0 0.0 0.00 0.00 0.00 64 1008.4
20260905235259 32 22 0.0 0.0 0.00 0.00 0.00 63 1008.5
20260905234759 32 14 0.0 0.0 0.00 0.00 0.00 63 1008.5
20260905234259 32 23 0.0 0.0 0.00 0.00 0.00 62 1008.5
20260905233758 32 20 0.0 0.0 0.00 0.00 0.00 61 1008.4
20260905233258 32 302 0.0 0.0 0.00 0.00 0.00 61 1008.4
20260905232758 32 18 0.0 0.0 0.00 0.00 0.00 61 1008.5
20260905232257 32 15 0.0 0.0 0.00 0.00 0.00 61 1008.4
20260905231757 32 5 0.0 0.0 0.00 0.00 0.00 61 1008.4
20260905231257 32 322 0.0 0.0 0.00 0.00 0.00 60 1008.3
20260905230756 33 20 0.0 0.0 0.00 0.00 0.00 60 1008.3
20260905230256 33 335 0.0 0.0 0.00 0.00 0.00 59 1008.3
20260905225756 33 332 0.0 0.0 0.00 0.00 0.00 59 1008.2
20260905225256 33 302 0.0 0.0 0.00 0.00 0.00 58 1008.1
20260905224755 33 281 0.0 0.0 0.00 0.00 0.00 59 1008.0
20260905224255 33 302 0.0 0.0 0.00 0.00 0.00 58 1008.1
20260905223755 33 290 0.0 0.0 0.00 0.00 0.00 58 1008.0
20260905223254 33 282 0.0 0.0 0.00 0.00 0.00 58 1008.2
20260905222754 33 50 0.0 0.0 0.00 0.00 0.00 58 1008.1
20260905222254 33 37 0.0 0.0 0.00 0.00 0.00 58 1008.1
20260905221754 33 28 0.0 0.0 0.00 0.00 0.00 58 1008.1
20260905221253 33 311 0.0 0.0 0.00 0.00 0.00 57 1008.0
20260905220753 33 0 0.0 0.0 0.00 0.00 0.00 57 1008.0
20260905220253 33 341 0.0 0.0 0.00 0.00 0.00 57 1007.8
20260905215752 33 23 0.0 0.0 0.00 0.00 0.00 57 1007.9
20260905215252 33 17 0.0 0.0 0.00 0.00 0.00 57 1007.9
20260905214752 33 305 0.0 0.0 0.00 0.00 0.00 57 1008.2
20260905214251 33 20 0.0 0.0 0.00 0.00 0.00 56 1008.2
20260905213751 33 319 0.0 0.0 0.00 0.00 0.00 56 1008.1
20260905213251 33 0 0.0 0.0 0.00 0.00 0.00 56 1008.2
20260905212751 33 307 0.0 0.0 0.00 0.00 0.00 56 1008.1
20260905212250 33 286 0.0 0.0 0.00 0.00 0.00 55 1008.1
20260905211750 33 355 0.0 0.0 0.00 0.00 0.00 56 1008.2
20260905211250 33 11 0.0 0.0 0.00 0.00 0.00 55 1008.2
20260905210749 33 294 0.0 0.0 0.00 0.00 0.00 55 1008.2
20260905210249 33 306 0.0 0.0 0.00 0.00 0.00 56 1008.2
20260905205749 33 284 0.0 0.0 0.00 0.00 0.00 55 1008.4
20260905205249 33 0 0.0 0.0 0.00 0.00 0.00 54 1008.5
20260905204748 33 5 0.0 0.0 0.00 0.00 0.00 55 1008.5
20260905204248 34 310 0.0 0.0 0.00 0.00 0.00 53 1008.5
20260905203748 34 281 0.0 0.0 0.00 0.00 0.00 54 1008.8
20260905203247 34 317 0.0 0.0 0.00 0.00 0.00 55 1008.8
20260905202747 33 0 0.0 0.0 0.00 0.00 0.00 55 1008.9
20260905202247 33 292 0.0 0.0 0.00 0.00 0.00 54 1008.9
20260905201746 33 21 0.0 0.0 0.00 0.00 0.00 55 1009.0
20260905201246 33 311 0.0 0.0 0.00 0.00 0.00 54 1009.0
20260905200746 33 280 0.0 0.0 0.00 0.00 0.00 53 1008.9
20260905200246 33 321 0.0 0.0 0.00 0.00 0.00 54 1008.9
20260905195745 34 5 0.0 0.0 0.00 0.00 0.00 53 1009.0
20260905195245 34 248 0.0 0.0 0.00 0.00 0.00 53 1008.9
20260905194745 34 282 0.0 0.0 0.00 0.00 0.00 53 1009.0
20260905194244 34 236 0.0 0.0 0.00 0.00 0.00 53 1009.0
20260905193744 34 278 0.0 0.0 0.00 0.00 0.00 53 1009.1
20260905193244 33 313 0.0 0.0 0.00 0.00 0.00 54 1009.1
20260905192744 33 220 0.0 0.0 0.00 0.00 0.00 53 1009.1
20260905192243 33 276 0.0 0.0 0.00 0.00 0.00 54 1009.2
20260905191743 33 285 0.0 0.0 0.00 0.00 0.00 54 1009.2
20260905191243 33 286 0.0 0.0 0.00 0.00 0.00 53 1009.3
20260905190742 33 223 0.0 0.0 0.00 0.00 0.00 54 1009.4
20260905190242 33 289 0.0 0.0 0.00 0.00 0.00 54 1009.5
20260905185742 33 308 0.0 0.0 0.00 0.00 0.00 53 1009.5
20260905185242 33 170 0.0 0.0 0.00 0.00 0.00 54 1009.7
20260905184741 33 273 0.0 0.0 0.00 0.00 0.00 54 1009.7
20260905184241 33 0 0.0 0.0 0.00 0.00 0.00 54 1009.8
20260905183741 33 233 0.0 0.0 0.00 0.00 0.00 53 1010.0
20260905183240 33 227 0.0 0.0 0.00 0.00 0.00 54 1010.0
20260905182740 33 192 0.0 0.0 0.00 0.00 0.00 52 1010.1
20260905182240 33 146 0.0 0.0 0.00 0.00 0.00 53 1010.1
20260905181739 33 204 0.0 0.0 0.00 0.00 0.00 54 1010.1
20260905181239 33 236 0.0 0.0 0.00 0.00 0.00 54 1010.1
20260905180739 33 121 0.0 0.0 0.00 0.00 0.00 54 1010.1
20260905180239 33 225 0.0 0.0 0.00 0.00 0.00 54 1010.2
20260905175738 32 233 0.0 0.0 0.00 0.00 0.00 55 1010.1
20260905175238 32 201 0.0 0.0 0.00 0.00 0.00 56 1010.2
20260905174738 32 205 0.0 0.0 0.00 0.00 0.00 55 1010.3
20260905174237 32 169 0.0 0.0 0.00 0.00 0.00 55 1010.3
20260905173737 32 197 0.0 0.0 0.00 0.00 0.00 55 1010.4
20260905173237 32 275 0.0 0.0 0.00 0.00 0.00 55 1010.4
20260905172737 32 0 0.0 0.0 0.00 0.00 0.00 55 1010.5
20260905172236 32 221 0.0 0.0 0.00 0.00 0.00 56 1010.5
20260905171736 31 176 0.0 0.0 0.00 0.00 0.00 55 1010.6
20260905171236 31 177 0.0 0.0 0.00 0.00 0.00 56 1010.7
20260905170735 31 201 0.0 0.0 0.00 0.00 0.00 56 1010.8
20260905170235 31 202 0.0 0.0 0.00 0.00 0.00 55 1010.9
20260905165735 31 0 0.0 0.0 0.00 0.00 0.00 55 1011.0
20260905165234 31 205 0.0 0.0 0.00 0.00 0.00 55 1011.1
20260905164734 31 78 0.0 0.0 0.00 0.00 0.00 55 1011.2
20260905164234 31 130 0.0 0.0 0.00 0.00 0.00 55 1011.3
20260905163734 31 136 0.0 0.0 0.00 0.00 0.00 55 1011.2
20260905163233 31 188 0.0 0.0 0.00 0.00 0.00 56 1011.2
20260905162733 31 150 0.0 0.0 0.00 0.00 0.00 55 1011.3
20260905162233 30 155 0.0 0.0 0.00 0.00 0.00 56 1011.1
20260905161732 30 168 0.0 0.0 0.00 0.00 0.00 56 1011.2
20260905161232 30 144 0.0 0.0 0.00 0.00 0.00 57 1011.2
20260905160732 30 142 0.0 0.0 0.00 0.00 0.00 57 1011.1
20260905160232 30 170 0.0 0.0 0.00 0.00 0.00 56 1011.1
20260905155731 30 138 0.0 0.0 0.00 0.00 0.00 57 1011.2
20260905155231 30 0 0.0 0.0 0.00 0.00 0.00 57 1011.4
20260905154731 30 122 0.0 0.0 0.00 0.00 0.00 58 1011.6
20260905154230 29 173 0.0 0.0 0.00 0.00 0.00 58 1011.7
20260905153730 28 161 0.0 0.0 0.00 0.00 0.00 59 1011.7
20260905153230 28 103 0.0 0.0 0.00 0.00 0.00 59 1011.7
20260905152730 28 0 0.0 0.0 0.00 0.00 0.00 60 1011.5
20260905152229 28 139 0.0 0.0 0.00 0.00 0.00 60 1011.5
20260905151729 28 113 0.0 0.0 0.00 0.00 0.00 61 1011.4
20260905151229 28 133 0.0 0.0 0.00 0.00 0.00 61 1011.5
20260905150728 28 0 0.0 0.0 0.00 0.00 0.00 61 1011.5
20260905150228 28 67 0.0 0.0 0.00 0.00 0.00 61 1011.5
20260905145728 27 143 0.0 0.0 0.00 0.00 0.00 64 1011.4
20260905145227 27 0 0.0 0.0 0.00 0.00 0.00 64 1011.5
20260905144727 27 101 0.0 0.0 0.00 0.00 0.00 64 1011.6
20260905144227 27 125 0.0 0.0 0.00 0.00 0.00 65 1011.7
20260905143727 27 106 0.0 0.0 0.00 0.00 0.00 65 1011.7
20260905143226 27 86 0.0 0.0 0.00 0.00 0.00 66 1011.8
20260905142726 26 102 0.0 0.0 0.00 0.00 0.00 66 1011.9
20260905142226 26 95 0.0 0.0 0.00 0.00 0.00 66 1012.0
20260905141725 26 94 0.0 0.0 0.00 0.00 0.00 67 1012.0
20260905141225 26 97 0.0 0.0 0.00 0.00 0.00 66 1011.9
20260905140725 26 110 0.0 0.0 0.00 0.00 0.00 67 1011.8
20260905140225 26 119 0.0 0.0 0.00 0.00 0.00 67 1011.9
20260905135724 26 124 0.0 0.0 0.00 0.00 0.00 68 1011.8
20260905135224 26 102 0.0 0.0 0.00 0.00 0.00 70 1011.8
20260905134724 25 127 0.0 0.0 0.00 0.00 0.00 71 1011.8
20260905134223 25 88 0.0 0.0 0.00 0.00 0.00 71 1012.0
20260905133723 25 92 0.0 0.0 0.00 0.00 0.00 72 1012.1
20260905133223 25 92 0.0 0.0 0.00 0.00 0.00 75 1011.9
20260905132723 25 55 0.0 0.0 0.00 0.00 0.00 76 1012.1
20260905132222 25 72 0.0 0.0 0.00 0.00 0.00 76 1012.1
20260905131722 25 109 0.0 0.0 0.00 0.00 0.00 77 1012.1
20260905131222 24 68 0.0 0.0 0.00 0.00 0.00 79 1012.0
20260905130721 24 90 0.0 0.0 0.00 0.00 0.00 80 1012.0
20260905130221 24 92 0.0 0.0 0.00 0.00 0.00 80 1011.9
20260905125721 24 70 0.0 0.0 0.00 0.00 0.00 81 1011.9
20260905125220 24 100 0.0 0.0 0.00 0.00 0.00 82 1011.9
20260905124720 24 62 0.0 0.0 0.00 0.00 0.00 82 1011.8
20260905124220 24 82 0.0 0.0 0.00 0.00 0.00 82 1011.8
20260905123720 24 17 0.0 0.0 0.00 0.00 0.00 84 1011.6
20260905123219 24 85 0.0 0.0 0.00 0.00 0.00 84 1011.7
20260905122719 25 65 0.0 0.0 0.00 0.00 0.00 83 1011.7
20260905122219 25 100 0.0 0.0 0.00 0.00 0.00 82 1011.7
20260905121718 26 68 0.0 0.0 0.00 0.00 0.00 80 1011.6
20260905121218 26 28 0.0 0.0 0.00 0.00 0.00 76 1010.9
20260905120718 26 28 0.0 0.0 0.00 0.00 0.00 76 1011.0
20260905120218 26 295 0.0 0.0 0.00 0.00 0.00 73 1010.8
20260905115717 26 282 0.0 0.0 0.00 0.00 0.00 74 1010.6
20260905115217 26 283 0.0 0.0 0.00 0.00 0.00 73 1010.5
20260905114717 26 248 0.0 0.0 0.00 0.00 0.00 74 1010.4
20260905114216 26 245 0.0 0.0 0.00 0.00 0.00 74 1010.5
20260905113716 26 254 0.0 0.0 0.00 0.00 0.00 74 1010.4
20260905113216 26 252 0.0 0.0 0.00 0.00 0.00 75 1010.4
20260905112715 26 287 0.0 0.0 0.00 0.00 0.00 75 1010.3
20260905112215 26 263 0.0 0.0 0.00 0.00 0.00 75 1010.3
20260905111715 26 262 0.0 0.0 0.00 0.00 0.00 75 1010.2
20260905111215 26 283 0.0 0.0 0.00 0.00 0.00 76 1010.2
20260905110714 26 283 0.0 0.0 0.00 0.00 0.00 76 1010.2
20260905110214 26 254 0.0 0.0 0.00 0.00 0.00 76 1010.1
20260905105714 26 248 0.0 0.0 0.00 0.00 0.00 77 1010.0
20260905105213 26 0 0.0 0.0 0.00 0.00 0.00 77 1010.0
20260905104713 26 257 0.0 0.0 0.00 0.00 0.00 77 1010.0
20260905104213 26 247 0.0 0.0 0.00 0.00 0.00 77 1010.1
20260905103713 26 254 0.0 0.0 0.00 0.00 0.00 78 1010.1
20260905103212 26 259 0.0 0.0 0.00 0.00 0.00 78 1010.2
20260905102712 26 259 0.0 0.0 0.00 0.00 0.00 78 1010.3
20260905102212 26 254 0.0 0.0 0.00 0.00 0.00 78 1010.3